Geneva, Switzerland

6:01 PM CEST on April 24, 2017 (GMT +0200)
Cointrin

Weather History for LSGG - March, 2014

Change the Weather History Date:

Wednesday, March 12, 2014

  Actual Average Record
Temperature  
Mean Temperature 44 °F -  
Max Temperature 57 °F 52 °F 66 °F (1997)
Min Temperature 32 °F 35 °F 24 °F (2006)
Degree Days  
Heating Degree Days 20    
Moisture  
Dew Point 34 °F    
Average Humidity 65    
Maximum Humidity 93    
Minimum Humidity 29    
Precipitation  
Precipitation 0.00 in 0.09 in - ()
Sea Level Pressure  
Sea Level Pressure 30.37 in    
Wind  
Wind Speed 2 mph ()    
Max Wind Speed 7 mph    
Max Gust Speed -    
Visibility 6.0 miles    
Events      
Averages and records for this station are not official NWS values.
T = Trace of Precipitation, MM = Missing Value Source: Averaged Metar Reports

Daily Weather History Graph

Daily Weather History Graph

Search for Another Location

Airport or City:

Trip Planner

Search our weather history database for the weather conditions in past years. The results will help you decide how hot, cold, wet, or windy it might be!

Date:

Astronomy

Mar. 12, 2014 Rise Set
Actual Time 6:54 AM CET 6:36 PM CET
Civil Twilight 6:24 AM CET 7:06 PM CET
Nautical Twilight 5:49 AM CET 7:41 PM CET
Astronomical Twilight 5:14 AM CET 8:17 PM CET
Moon 2:42 PM CET (3/12) 4:27 AM CET (3/12)
Length of Visible Light 12h 42m
Length of Day
11h 42m
Waxing Gibbous, 84% of the Moon is Illuminated
Mar 12
Waxing Gibbous
Mar 16
Full
Mar 24
Last Quarter
Mar 30
New
Apr 7
First Quarter

Hourly Weather History & Observations

Time (CET) Temp. Dew Point Humidity Pressure Visibility Wind Dir Wind Speed Gust Speed Precip Events Conditions
12:00 AM 39 °F 32 °F 66% 30.36 in - NW 2.3 mph - -  
12:20 AM 39.2 °F 33.8 °F 81% 30.30 in - Calm Calm - N/A   Clear
12:50 AM 37.4 °F 32.0 °F 81% 30.30 in - Calm Calm - N/A   Clear
1:00 AM 36 °F 32 °F 79% 30.37 in 7 mi NW 2.3 mph - -   Mist
1:20 AM 35.6 °F 32.0 °F 87% 30.30 in - Calm Calm - N/A   Clear
1:50 AM 35.6 °F 32.0 °F 87% 30.33 in - Calm Calm - N/A   Clear
2:00 AM 36 °F 31 °F 73% 30.38 in - WNW 2.3 mph - -  
2:50 AM 33.8 °F 32.0 °F 93% 30.33 in - Calm Calm - N/A   Clear
3:00 AM 36 °F 31 °F 74% 30.39 in - WSW 2.3 mph - -  
3:20 AM 35.6 °F 32.0 °F 87% 30.33 in 5.6 mi Calm Calm - N/A   Unknown
3:50 AM 33.8 °F 32.0 °F 93% 30.33 in - Calm Calm - N/A   Clear
4:00 AM 35 °F 31 °F 79% 30.40 in 6 mi SW 1.2 mph - -   Mist
4:20 AM 33.8 °F 32.0 °F 93% 30.33 in 5.6 mi Calm Calm - N/A   Unknown
4:50 AM 33.8 °F 32.0 °F 93% 30.33 in 5.6 mi Calm Calm - N/A   Unknown
5:00 AM 33 °F 31 °F 87% 30.42 in - SW 1.2 mph - -  
5:20 AM 32.0 °F 30.2 °F 93% 30.33 in 5.6 mi WSW 1.2 mph - N/A   Unknown
5:50 AM 32.0 °F 30.2 °F 93% 30.36 in 5.0 mi Calm Calm - N/A   Unknown
6:00 AM 33 °F 30 °F 83% 30.43 in - WNW 2.3 mph - -  
6:20 AM 32.0 °F 30.2 °F 93% 30.36 in - Calm Calm - N/A   Clear
6:50 AM 32.0 °F 30.2 °F 93% 30.36 in 5.0 mi Calm Calm - N/A   Unknown
7:00 AM 33 °F 30 °F 82% 30.43 in 5 mi NW 2.3 mph - -   Mist
7:20 AM 33.8 °F 32.0 °F 93% 30.36 in 5.0 mi Calm Calm - N/A   Unknown
7:50 AM 33.8 °F 32.0 °F 93% 30.39 in - Calm Calm - N/A   Clear
8:00 AM 36 °F 31 °F 76% 30.44 in - NW 1.2 mph - -  
8:20 AM 35.6 °F 33.8 °F 93% 30.39 in - Calm Calm - N/A   Clear
8:50 AM 42.8 °F 35.6 °F 76% 30.39 in - Calm Calm - N/A   Clear
9:00 AM 42 °F 35 °F 68% 30.45 in - NNE 2.3 mph - -  
9:20 AM 46.4 °F 35.6 °F 66% 30.42 in - Calm Calm - N/A   Clear
9:50 AM 48.2 °F 35.6 °F 62% 30.42 in - Calm Calm - N/A   Clear
10:00 AM 47 °F 31 °F 42% 30.44 in 7 mi NE 2.3 mph - -   Haze
10:20 AM 50.0 °F 33.8 °F 54% 30.42 in - Variable 1.2 mph - N/A   Clear
10:50 AM 51.8 °F 32.0 °F 47% 30.42 in - Variable 3.5 mph - N/A   Clear
11:00 AM 49 °F 28 °F 31% 30.43 in - ENE 4.6 mph - -  
11:20 AM 51.8 °F 30.2 °F 44% 30.42 in - NNE 4.6 mph - N/A   Clear
11:50 AM 51.8 °F 30.2 °F 44% 30.39 in - Variable 2.3 mph - N/A   Clear
12:00 PM 52 °F 30 °F 30% 30.42 in - NNE 3.5 mph - -  
12:20 PM 53.6 °F 32.0 °F 44% 30.39 in - Variable 1.2 mph - N/A   Clear
12:50 PM 53.6 °F 32.0 °F 44% 30.39 in - ENE 3.5 mph - N/A   Clear
1:00 PM 54 °F 31 °F 29% 30.38 in 7 mi East 4.6 mph - -   Haze
1:20 PM 55.4 °F 33.8 °F 44% 30.36 in - ENE 4.6 mph - N/A   Clear
1:50 PM 55.4 °F 33.8 °F 44% 30.36 in - ENE 4.6 mph - N/A   Clear
2:00 PM 54 °F 31 °F 30% 30.37 in - ENE 4.6 mph - -  
2:20 PM 57.2 °F 33.8 °F 41% 30.36 in - Variable 3.5 mph - N/A   Clear
2:50 PM 59.0 °F 33.8 °F 39% 30.33 in - NNE 4.6 mph - N/A   Clear
3:00 PM 58 °F 35 °F 29% 30.34 in - ENE 3.5 mph - -  
3:20 PM 57.2 °F 35.6 °F 44% 30.33 in - East 6.9 mph - N/A   Clear
3:50 PM 57.2 °F 35.6 °F 44% 30.33 in - ENE 5.8 mph - N/A   Clear
4:00 PM 57 °F 34 °F 30% 30.34 in 7 mi NE 5.8 mph - -   Haze
4:20 PM 57.2 °F 35.6 °F 44% 30.33 in - ENE 5.8 mph - N/A   Clear
4:50 PM 57.2 °F 35.6 °F 44% 30.33 in - East 4.6 mph - N/A   Clear
5:00 PM 57 °F 35 °F 31% 30.33 in - ENE 4.6 mph - -  
5:20 PM 57.2 °F 37.4 °F 48% 30.33 in - ENE 3.5 mph - N/A   Clear
5:50 PM 57.2 °F 35.6 °F 44% 30.33 in - NE 4.6 mph - N/A   Clear
6:00 PM 56 °F 35 °F 32% 30.33 in - NE 4.6 mph - -  
6:20 PM 53.6 °F 37.4 °F 54% 30.33 in - Calm Calm - N/A   Clear
6:50 PM 51.8 °F 37.4 °F 58% 30.33 in - East 1.2 mph - N/A   Clear
7:00 PM 49 °F 36 °F 49% 30.37 in 6 mi North 1.2 mph - -   Haze
7:20 PM 50.0 °F 37.4 °F 62% 30.36 in - Calm Calm - N/A   Clear
7:50 PM 48.2 °F 37.4 °F 66% 30.36 in - Calm Calm - N/A   Clear
8:00 PM 47 °F 35 °F 52% 30.38 in - NW 2.3 mph - -  
8:20 PM 46.4 °F 37.4 °F 71% 30.36 in - Calm Calm - N/A   Clear
8:50 PM 44.6 °F 37.4 °F 76% 30.36 in - Calm Calm - N/A   Clear
9:00 PM 43 °F 36 °F 67% 30.40 in - NNW 1.2 mph - -  
9:20 PM 44.6 °F 37.4 °F 76% 30.36 in - Calm Calm - N/A   Clear
9:50 PM 42.8 °F 37.4 °F 81% 30.36 in - ESE 1.2 mph - N/A   Clear
10:00 PM 44 °F 37 °F 68% 30.40 in 7 mi ENE 1.2 mph - -   Mist
10:20 PM 41.0 °F 37.4 °F 87% 30.36 in - Calm Calm - N/A   Clear
10:50 PM 41.0 °F 37.4 °F 87% 30.36 in - Calm Calm - N/A   Clear
11:00 PM 42 °F 36 °F 72% 30.42 in - West 2.3 mph - -  
11:20 PM 41.0 °F 35.6 °F 81% 30.36 in - Calm Calm - N/A   Clear
11:50 PM 39.2 °F 35.6 °F 87% 30.36 in - Calm Calm - N/A   Clear